Weather History for KMLC - March, 2013

Change the Weather History Date:

Monday, March 11, 2013

  Actual Average Record
Temperature  
Mean Temperature 40 °F -  
Max Temperature 53 °F 63 °F 93 °F (1967)
Min Temperature 27 °F 43 °F 21 °F (1992)
Degree Days  
Heating Degree Days 26    
Moisture  
Dew Point 23 °F    
Average Humidity 62    
Maximum Humidity 93    
Minimum Humidity 24    
Precipitation  
Precipitation 0.00 in - - ()
Sea Level Pressure  
Sea Level Pressure 30.04 in    
Wind  
Wind Speed 6 mph (NW)    
Max Wind Speed 13 mph    
Max Gust Speed 20 mph    
Visibility 10 miles    
Events      
Averages and records for this station are not official NWS values.
T = Trace of Precipitation, MM = Missing Value Source: NWS Daily Summary

Daily Weather History Graph

Daily Weather History Graph

Search for Another Location

Airport or City:

Trip Planner

Search our weather history database for the weather conditions in past years. The results will help you decide how hot, cold, wet, or windy it might be!

Date:

Astronomy

Mar. 11, 2013 Rise Set
Actual Time 7:38 AM CDT 7:27 PM CDT
Civil Twilight 7:13 AM CDT 7:52 PM CDT
Nautical Twilight 6:44 AM CDT 8:22 PM CDT
Astronomical Twilight 6:14 AM CDT 8:51 PM CDT
Moon 7:14 AM CDT (3/11) 7:38 PM CDT (3/11)
Length of Visible Light 12h 39m
Length of Day
11h 48m
Waning Crescent, 0% of the Moon is Illuminated
Mar 11
Waning Crescent
Mar 11
New
Mar 19
First Quarter
Mar 27
Full
Apr 2
Last Quarter

Hourly Weather History & Observations

Time (CDT) Temp. Windchill Dew Point Humidity Pressure Visibility Wind Dir Wind Speed Gust Speed Precip Events Conditions
12:53 AM 36.0 °F 27.5 °F 24.1 °F 62% 30.05 in 10.0 mi NW 12.7 mph - N/A   Overcast
1:53 AM 34.0 °F 26.6 °F 24.1 °F 67% 30.04 in 10.0 mi NW 9.2 mph - N/A   Scattered Clouds
2:53 AM 33.1 °F 25.5 °F 24.1 °F 70% 30.05 in 10.0 mi NNW 9.2 mph - N/A   Clear
3:53 AM 32.0 °F 28.7 °F 24.1 °F 73% 30.05 in 10.0 mi NW 3.5 mph - N/A   Scattered Clouds
4:53 AM 30.9 °F - 24.1 °F 76% 30.03 in 10.0 mi Calm Calm - N/A   Scattered Clouds
5:53 AM 27.0 °F - 24.1 °F 89% 30.04 in 10.0 mi Calm Calm - N/A   Clear
6:53 AM 27.0 °F - 24.1 °F 89% 30.05 in 10.0 mi Calm Calm - N/A   Scattered Clouds
7:53 AM 27.0 °F - 23.0 °F 85% 30.06 in 7.0 mi Calm Calm - N/A   Partly Cloudy
8:27 AM 28.4 °F - 24.8 °F 86% 30.06 in 7.0 mi Calm Calm - N/A   Mostly Cloudy
8:35 AM 28.4 °F - 26.6 °F 93% 30.06 in 8.0 mi Calm Calm - N/A   Scattered Clouds
8:53 AM 30.0 °F - 27.0 °F 88% 30.07 in 8.0 mi Calm Calm - N/A   Partly Cloudy
9:53 AM 35.1 °F 28.6 °F 27.0 °F 72% 30.07 in 10.0 mi WNW 8.1 mph - N/A   Scattered Clouds
10:53 AM 37.9 °F 33.5 °F 24.1 °F 57% 30.07 in 10.0 mi Variable 5.8 mph - N/A   Partly Cloudy
11:53 AM 41.0 °F 35.8 °F 23.0 °F 49% 30.08 in 10.0 mi WNW 8.1 mph - N/A   Clear
12:53 PM 43.0 °F 37.2 °F 21.9 °F 43% 30.07 in 10.0 mi WNW 10.4 mph - N/A   Clear
1:53 PM 45.0 °F 40.6 °F 21.0 °F 39% 30.05 in 10.0 mi NW 8.1 mph 18.4 mph N/A   Clear
2:53 PM 48.9 °F - 21.0 °F 33% 30.02 in 10.0 mi NW 9.2 mph 19.6 mph N/A   Clear
3:53 PM 51.1 °F - 18.0 °F 27% 30.01 in 10.0 mi West 11.5 mph - N/A   Clear
4:53 PM 52.0 °F - 19.0 °F 27% 30.01 in 10.0 mi WNW 8.1 mph - N/A   Overcast
5:53 PM 52.0 °F - 17.1 °F 25% 30.00 in 10.0 mi Calm Calm - N/A   Clear
6:53 PM 52.0 °F - 16.0 °F 24% 30.00 in 10.0 mi NW 3.5 mph - N/A   Clear
7:53 PM 44.1 °F - 21.9 °F 42% 30.01 in 10.0 mi Calm Calm - N/A   Partly Cloudy
8:53 PM 37.9 °F - 28.0 °F 68% 30.03 in 10.0 mi Calm Calm - N/A   Partly Cloudy
9:53 PM 35.1 °F - 25.0 °F 67% 30.05 in 10.0 mi Calm Calm - N/A   Partly Cloudy
10:53 PM 32.0 °F - 26.6 °F 80% 30.04 in 10.0 mi Calm Calm - N/A   Partly Cloudy
11:53 PM 32.0 °F - 26.1 °F 79% 30.06 in 10.0 mi Calm Calm - N/A   Scattered Clouds